Terminal Aerodrome Forecast
Issued by NWS

Home | Current Version | Previous Version | Text Only | Print | Product List | Glossary Off
Versions: 1 2 3 4 5 6 7 8 9 10 11 12 13 14

000
FTUS43 KICT 260500
TAFHUT
TAF
KHUT 260520Z 2606/2706 19011KT P6SM SCT150
     FM261500 23014G22KT P6SM BKN150
     FM270100 17007KT P6SM BKN150=

USA.gov is the U.S. government's official web portal to all federal, state and local government web resources and services.